Regional Weather Roundup
Issued by NWS

Home | Current Version | Previous Version | Text Only | Print | Product List | Glossary On
Versions: 1 2 3 4 5 6 7 8 9 10 11 12 13 14 15 16 17 18 19 20 21 22 23 24 25 26 27 28 29 30 31 32 33 34 35 36 37 38 39 40 41 42 43 44 45 46 47 48 49 50
000
ASUS45 KBOU 191510
RWRCO

WEATHER ROUNDUP FOR COLORADO
NATIONAL WEATHER SERVICE DENVER/BOULDER CO
800 AM MST SUN NOV 19 2017

NOTE: "FAIR" INDICATES FEW OR NO CLOUDS BELOW 12000 FEET WITH NO
SIGNIFICANT WEATHER AND/OR OBSTRUCTIONS TO VISIBILITY.

COZ001>005-013-030-031-191600-
...NORTHWEST COLORADO...

CITY           SKY/WX    TMP DP  RH WIND       PRES   REMARKS
CRAIG          FAIR      10   6  84 SW5       30.32S WCI   2
HAYDEN         FAIR      15   8  73 E12       30.33R WCI   2
MEEKER         FAIR      13   8  81 MISG      30.33R
RABBIT EARS PA FAIR      18  10  73 W7        30.28S WCI   8
STEAMBOAT SPGS FAIR       9   5  84 CALM      30.32S
WALDEN         FAIR       9   1  72 SE8       30.27S WCI  -4
$$

COZ006>008-011-191600-
...WEST CENTRAL VALLEYS...

CITY           SKY/WX    TMP DP  RH WIND       PRES   REMARKS
GRAND JUNCTION FAIR      20  15  81 E3        30.38R
MONTROSE       FAIR      20  14  77 SE6       30.40R WCI  12
EAGLE          FAIR      12   8  84 E3        30.43R
RIFLE          FAIR      18  14  84 CALM      30.40R
DELTA          FAIR      23  15  72 CALM      30.40S
NUCLA          FAIR      19   9  63 SE6       30.40R WCI  11
$$

COZ017>023-064>068-191600-
...SOUTHWEST COLORADO...

CITY           SKY/WX    TMP DP  RH WIND       PRES   REMARKS
DURANGO        FAIR      18  14  84 NE3       30.34R
CORTEZ         FAIR      16  10  77 NE5       30.36R WCI   9
PAGOSA SPRINGS FAIR      24  17  73 CALM      30.35R
TELLURIDE      FAIR      26   4  40 SE7       30.35S WCI  18
WOLF CREEK PAS FAIR      27 -13  17 SW5       30.42R WCI  21
$$

COZ009-010-012-014-032>034-037-058>063-191600-
...CENTRAL COLORADO...

CITY           SKY/WX    TMP DP  RH WIND       PRES   REMARKS
ASPEN          FAIR      14   8  77 CALM      30.32F
BUENA VISTA    FAIR      19  10  67 N3        30.33S
COPPER MTN     FAIR      25  -8  24 MISG      30.33R
BERTHOUD PASS  FAIR      18   5  57 NW33G46   30.29R WCI  -3
COTTONWOOD PAS FAIR      32  -2  23 W7        30.31S WCI  26
GUNNISON       FAIR       8   2  76 E3        30.45S
KREMMLING      FAIR      14  10  85 CALM      30.40R
LEADVILLE      FAIR      10   0  63 CALM      30.30R
MONARCH PASS   FAIR      19  -8  30 W28       30.43R WCI   1
SALIDA         FAIR      23  10  58 N7        30.40S WCI  15
SUNLIGHT       FAIR      19  -4  35 SW12      30.37R WCI   7
WILKERSON PASS FAIR      23  -8  25 W12G20    30.33R WCI  12
$$

COZ069>075-191600-
...SAN LUIS VALLEY/SANGRE DE CRISTO MOUNTAINS...

CITY           SKY/WX    TMP DP  RH WIND       PRES   REMARKS
ALAMOSA        FAIR      15  10  80 CALM      30.36R
DEL NORTE      FAIR      21   5  48 W12       30.36S WCI  10
LA VETA PASS   FAIR      23   7  50 SW24G31     N/A  WCI   7
SAGUACHE       FAIR      21   3  45 NW14      30.36S WCI   8
$$

COZ035-036-038>040-191600-
...NORTHERN COLORADO FRONT RANGE...

CITY           SKY/WX    TMP DP  RH WIND       PRES   REMARKS
DENVER INTL AP PTSUNNY   38  15  39 S16       30.14S
DMNS CITY PARK   N/A     35  14  42 E5G14     30.15S WCI  31
AURORA         PTSUNNY   37  14  39 S9        30.16R
FRONT RANGE AP PTSUNNY   39  16  38 S8        30.15F
ERIE MUNI ARPT FAIR      27  20  76 CALM      30.19S
BOULDER MUN AP FAIR      30  19  64 CALM      30.13F
CENTENNIAL     PTSUNNY   36  15  42 S10       30.16S
BROOMFIELD     PTSUNNY   30  18  59 W12       30.14F WCI  21
FORT COLLINS   FAIR      25  18  74 SW5       30.14F WCI  19
LONGMONT       FAIR      27  20  75 W6        30.16S WCI  21
$$

COZ041-046-047-076>085-087-088-191600-
...PIKES PEAK/PALMER DIVIDE AND SOUTHERN FOOTHILLS...

CITY           SKY/WX    TMP DP  RH WIND       PRES   REMARKS
COLO. SPRINGS  PTSUNNY   34  15  46 N6        30.20F WCI  29
A. F. ACADEMY  FAIR      30  13  49 CALM      30.20S
SCHRIEVER AFB  FAIR      36  16  44 NE6       30.21S
CHEYENNE MTN   FAIR      42   6  23 CALM      30.15S
ELLICOTT       NOT AVBL
FALCON         FAIR      39   6  25 SW3       30.22R
FORT CARSON    FAIR      33  17  52 NW6       30.19S WCI  27
LIMON          FAIR      21  18  88 CALM      30.18S
MONUMENT HILL  FAIR      34   9  35 SW9       30.21R WCI  26
CANON CITY     FAIR      41  10  28 W14       30.21R
WALSENBURG     FAIR      45   7  21 W16       30.21S
TRINIDAD       FAIR      32  15  49 W12       30.24R WCI  23
$$

COZ042>045-048>051-090-091-191600-
...NORTHEAST COLORADO...

CITY           SKY/WX    TMP DP  RH WIND       PRES   REMARKS
GREELEY ARPT   FAIR      23  19  85 NW5       30.16S WCI  17
AKRON          FAIR      32  19  58 W12       30.14S WCI  23
BURLINGTON     FAIR      31  20  63 SW8       30.18S WCI  23
WRAY           NOT AVBL
YUMA           FAIR      28  21  74 SW7       30.14S WCI  21
STERLING       FAIR      23  19  86 SW8       30.15S WCI  14
HOLYOKE        FAIR      27  19  74 W8        30.15S WCI  18
FORT MORGAN    FAIR      21  18  86 W8        30.16S WCI  12
$$

COZ086-089-092>099-191600-
...SOUTHEAST COLORADO...

CITY           SKY/WX    TMP DP  RH WIND       PRES   REMARKS
PUEBLO         FAIR      28  23  81 SW6       30.22R WCI  22
LA JUNTA       FAIR      27  21  78 W9        30.22R WCI  18
LAMAR          FAIR      27  20  75 W10       30.22S WCI  17
SPRINGFIELD      N/A     38  24  57 W5        30.20R
$$



USA.gov is the U.S. government's official web portal to all federal, state and local government web resources and services.